EW0387 Weather Reports


time (UTC)temp
C
wind
direction
speed
KPH
gust
KPH
rain 1hr
cm
rain 24hr
cm
rain mn
cm
humidity
%
barometer
mb
20260906221508 35 352 4.8 0.0 0.00 0.00 0.00 33 992.7
20260906220006 35 342 4.8 0.0 0.00 0.00 0.00 33 993.1
20260906214505 34 7 6.4 0.0 0.00 0.00 0.00 33 993.2
20260906213002 33 126 6.4 0.0 0.00 0.00 0.00 34 993.6
20260906211508 33 25 4.8 0.0 0.00 0.00 0.00 34 994.1
20260906210002 34 71 3.2 0.0 0.00 0.00 0.00 35 993.7
20260906204606 33 85 4.8 0.0 0.00 0.00 0.00 35 994.4
20260906203100 33 328 4.8 0.0 0.00 0.00 0.00 35 994.4
20260906201608 31 115 8.0 0.0 0.00 0.00 0.00 37 995.2
20260906200056 31 56 6.4 0.0 0.00 0.00 0.00 38 995.1
20260906194556 33 114 4.8 0.0 0.00 0.00 0.00 34 994.8
20260906193055 32 89 6.4 0.0 0.00 0.00 0.00 35 994.8
20260906191553 32 360 4.8 0.0 0.00 0.00 0.00 36 995.2
20260906190050 31 23 4.8 0.0 0.00 0.00 0.00 40 995.6
20260906184555 30 119 4.8 0.0 0.00 0.00 0.00 40 996.3
20260906183047 31 39 3.2 0.0 0.00 0.00 0.00 40 996.3
20260906181547 31 51 4.8 0.0 0.00 0.00 0.00 40 996.5
20260906180100 31 51 3.2 0.0 0.00 0.00 0.00 40 996.9
20260906174543 30 358 3.2 0.0 0.00 0.00 0.00 43 997.4
20260906173041 28 56 3.2 0.0 0.00 0.00 0.00 46 998.4
20260906171541 29 31 3.2 0.0 0.00 0.00 0.00 44 998.0
20260906170046 29 325 1.6 0.0 0.00 0.00 0.00 45 997.8
20260906164535 28 325 1.6 0.0 0.00 0.00 0.00 47 998.1
20260906163030 26 6 1.6 0.0 0.00 0.00 0.00 51 999.0
20260906161530 26 88 3.2 0.0 0.00 0.00 0.00 53 998.8
20260906160028 25 37 1.6 0.0 0.00 0.00 0.00 58 999.5
20260906154525 25 61 3.2 0.0 0.00 0.00 0.00 57 999.2
20260906153022 24 51 1.6 0.0 0.00 0.00 0.00 62 999.6
20260906151520 23 40 3.2 0.0 0.00 0.00 0.00 64 999.6
20260906150023 23 35 1.6 0.0 0.00 0.00 0.00 66 999.6
20260906144514 22 315 3.2 0.0 0.00 0.00 0.00 69 999.9
20260906143021 21 244 1.6 0.0 0.00 0.00 0.00 72 1000.2
20260906141511 20 298 1.6 0.0 0.00 0.00 0.00 74 1000.7
20260906140018 18 300 3.2 0.0 0.00 0.00 0.00 75 1000.8
20260906134510 17 255 4.8 0.0 0.00 0.00 0.00 78 1001.1
20260906133009 17 297 3.2 0.0 0.00 0.00 0.00 78 1001.3
20260906131515 16 314 3.2 0.0 0.00 0.00 0.00 80 1001.5
20260906130008 16 314 1.6 0.0 0.00 0.00 0.00 81 1000.5
20260906124508 16 314 1.6 0.0 0.00 0.00 0.00 81 1000.4
20260906123007 16 289 0.0 0.0 0.00 0.00 0.00 81 1000.4
20260906121507 16 279 1.6 0.0 0.00 0.00 0.00 81 1000.4
20260906120005 16 287 1.6 0.0 0.00 0.00 0.00 81 999.4
20260906114504 16 264 0.0 0.0 0.00 0.00 0.00 81 999.1
20260906113002 16 289 0.0 0.0 0.00 0.00 0.00 79 999.3
20260906111616 17 294 1.6 0.0 0.00 0.00 0.00 77 999.3
20260906110059 17 287 4.8 0.0 0.00 0.00 0.00 74 998.6
20260906104557 17 300 4.8 0.0 0.00 0.00 0.00 71 998.5
20260906103054 17 304 4.8 0.0 0.00 0.00 0.00 69 998.4
20260906101551 18 316 1.6 0.0 0.00 0.00 0.00 67 998.2
20260906100048 18 326 1.6 0.0 0.00 0.00 0.00 64 998.3
20260906094545 18 13 1.6 0.0 0.00 0.00 0.00 62 997.8
20260906093046 19 327 1.6 0.0 0.00 0.00 0.00 60 998.0
20260906091539 20 310 1.6 0.0 0.00 0.00 0.00 57 997.4
20260906090038 20 315 3.2 0.0 0.00 0.00 0.00 55 997.2
20260906084546 20 300 3.2 0.0 0.00 0.00 0.00 56 997.0
20260906083037 20 46 1.6 0.0 0.00 0.00 0.00 56 996.7
20260906081533 21 93 1.6 0.0 0.00 0.00 0.00 55 996.5
20260906080034 21 256 6.4 0.0 0.00 0.00 0.00 53 995.9
20260906074529 21 237 8.0 0.0 0.00 0.00 0.00 53 995.7
20260906073037 21 254 4.8 0.0 0.00 0.00 0.00 53 995.4
20260906071527 21 240 8.0 0.0 0.00 0.00 0.00 54 995.5
20260906070026 21 225 9.7 0.0 0.00 0.00 0.00 55 996.1
20260906064524 21 290 6.4 0.0 0.00 0.00 0.00 56 996.5
20260906063022 21 262 4.8 0.0 0.00 0.00 0.00 54 996.5
20260906061521 22 252 3.2 0.0 0.00 0.00 0.00 54 996.7
20260906060019 22 144 1.6 0.0 0.00 0.00 0.00 54 997.8
20260906054517 22 158 4.8 0.0 0.00 0.00 0.00 53 997.8
20260906053017 23 185 3.2 0.0 0.00 0.00 0.00 52 997.2
20260906051516 24 246 4.8 0.0 0.00 0.00 0.00 45 997.8
20260906050016 24 266 6.4 0.0 0.00 0.00 0.00 44 998.6
20260906044515 25 188 6.4 0.0 0.00 0.00 0.00 42 998.8
20260906043019 23 84 6.4 0.0 0.00 0.00 0.00 46 998.6
20260906041514 24 17 3.2 0.0 0.00 0.00 0.00 42 997.6
20260906040019 24 243 3.2 0.0 0.00 0.00 0.00 42 997.7
20260906034526 23 73 1.6 0.0 0.00 0.00 0.00 42 997.6
20260906033023 24 105 1.6 0.0 0.00 0.00 0.00 43 997.1
20260906031513 24 117 3.2 0.0 0.00 0.00 0.00 41 997.2
20260906030012 25 162 0.0 0.0 0.00 0.00 0.00 41 997.2
20260906024511 25 255 0.0 0.0 0.00 0.00 0.00 38 996.8
20260906023011 26 255 0.0 0.0 0.00 0.00 0.00 37 996.3
20260906021511 26 255 3.2 0.0 0.00 0.00 0.00 37 996.3
20260906020011 26 223 0.0 0.0 0.00 0.00 0.00 37 996.6
20260906014523 27 227 1.6 0.0 0.00 0.00 0.00 36 996.0
20260906013014 27 264 4.8 0.0 0.00 0.00 0.00 34 995.7
20260906011512 28 301 6.4 0.0 0.00 0.00 0.00 33 995.4
20260906010009 29 295 6.4 0.0 0.00 0.00 0.00 31 996.0
20260906004509 30 331 4.8 0.0 0.00 0.00 0.00 30 996.0
20260906003008 31 233 1.6 0.0 0.00 0.00 0.00 31 995.5
20260906001508 31 154 0.0 0.0 0.00 0.00 0.00 29 995.5
20260906000007 31 155 0.0 0.0 0.00 0.00 0.00 28 995.5
20260905234507 32 78 1.6 0.0 0.00 0.00 0.00 28 995.1
20260905233007 33 59 3.2 0.0 0.00 0.00 0.00 26 994.8
20260905231506 33 16 3.2 0.0 0.00 0.00 0.00 28 995.1
20260905230005 33 136 3.2 0.0 0.00 0.00 0.00 26 995.1
20260905224509 32 23 1.6 0.0 0.00 0.00 0.00 29 995.3
20260905223005 32 90 1.6 0.0 0.00 0.00 0.00 27 995.3